DW0479 Weather Reports


time (UTC)temp
C
wind
direction
speed
KPH
gust
KPH
rain 1hr
cm
rain 24hr
cm
rain mn
cm
humidity
%
barometer
mb
20260904195615 33 227 11.3 24.1 0.00 0.13 0.00 63 1013.2
20260904195052 34 190 8.0 16.1 0.00 0.13 0.00 63 1013.5
20260904193610 34 204 6.4 14.5 0.00 0.13 0.00 64 1013.6
20260904192611 32 222 8.0 16.1 0.00 0.13 0.00 67 1013.9
20260904191611 32 263 8.0 16.1 0.00 0.13 0.00 66 1014.1
20260904190607 33 246 4.8 14.5 0.00 0.13 0.00 64 1014.0
20260904185607 35 157 4.8 14.5 0.00 0.13 0.00 60 1014.1
20260904184609 35 202 8.0 16.1 0.00 0.13 0.00 61 1014.2
20260904183602 33 233 3.2 11.3 0.00 0.13 0.00 64 1014.3
20260904182603 33 223 3.2 6.4 0.00 0.13 0.00 64 1014.6
20260904181601 33 225 6.4 14.5 0.00 0.13 0.00 61 1014.7
20260904181032 34 139 6.4 19.3 0.00 0.13 0.00 60 1014.7
20260904180027 33 190 6.4 16.1 0.00 0.13 0.00 66 1014.9
20260904174545 33 145 6.4 14.5 0.00 0.13 0.00 63 1015.0
20260904173537 34 147 6.4 14.5 0.00 0.13 0.00 62 1014.9
20260904172536 34 194 8.0 22.5 0.00 0.13 0.00 64 1015.1
20260904171537 33 151 8.0 17.7 0.00 0.13 0.00 65 1015.2
20260904170536 34 178 6.4 17.7 0.00 0.13 0.00 63 1015.3
20260904165534 33 201 4.8 11.3 0.00 0.13 0.00 67 1015.5
20260904164536 32 173 8.0 17.7 0.00 0.13 0.00 69 1015.7
20260904163535 32 236 6.4 16.1 0.00 0.13 0.00 70 1015.8
20260904162536 33 224 4.8 11.3 0.00 0.13 0.00 67 1015.9
20260904161533 33 217 8.0 19.3 0.00 0.13 0.00 68 1016.0
20260904161014 32 217 8.0 19.3 0.00 0.13 0.00 71 1016.1
20260904155535 33 177 8.0 19.3 0.00 0.13 0.00 69 1016.2
20260904154532 32 163 8.0 19.3 0.00 0.13 0.00 70 1016.3
20260904154016 32 119 8.0 16.1 0.00 0.13 0.00 72 1016.2
20260904152934 31 214 8.0 17.7 0.00 0.13 0.00 73 1016.1
20260904152609 32 173 8.0 17.7 0.00 0.13 0.00 73 1016.2
20260904150532 31 119 8.0 17.7 0.00 0.13 0.00 76 1016.2
20260904145532 31 115 6.4 16.1 0.00 0.13 0.00 76 1016.1
20260904144517 31 198 6.4 14.5 0.00 0.13 0.00 77 1016.0
20260904144439 31 138 3.2 12.9 0.00 0.13 0.00 79 1016.0
20260904142519 30 194 4.8 11.3 0.00 0.13 0.00 80 1015.9
20260904141517 30 190 3.2 11.3 0.00 0.13 0.00 84 1015.8
20260904140517 30 197 4.8 12.9 0.00 0.13 0.00 85 1015.8
20260904135513 29 184 3.2 9.7 0.00 0.13 0.00 86 1015.7
20260904134514 28 180 6.4 12.9 0.00 0.13 0.00 86 1015.6
20260904133514 28 177 3.2 11.3 0.00 0.13 0.00 88 1015.7
20260904132513 28 175 1.6 8.0 0.00 0.13 0.00 89 1015.7
20260904131514 27 210 3.2 9.7 0.00 0.13 0.00 91 1015.6
20260904130513 27 206 1.6 4.8 0.00 0.13 0.00 92 1015.6
20260904125512 27 208 3.2 9.7 0.00 0.13 0.00 93 1015.5
20260904124514 26 163 1.6 4.8 0.00 0.13 0.00 94 1015.4
20260904123505 26 164 1.6 4.8 0.00 0.13 0.00 95 1015.4
20260904122505 26 164 0.0 0.0 0.00 0.13 0.00 95 1015.2
20260904121505 25 164 0.0 0.0 0.00 0.13 0.00 95 1015.1
20260904120506 25 154 0.0 0.0 0.00 0.13 0.00 95 1015.1
20260904115507 25 154 0.0 0.0 0.00 0.13 0.00 95 1015.0
20260904114506 24 154 0.0 0.0 0.00 0.13 0.00 95 1015.0
20260904113505 23 154 0.0 0.0 0.00 0.13 0.00 95 1014.9
20260904112506 23 154 0.0 0.0 0.00 0.13 0.00 95 1014.8
20260904111506 23 154 0.0 0.0 0.00 0.13 0.00 95 1014.8
20260904110506 23 154 0.0 0.0 0.00 0.13 0.00 95 1014.7
20260904105502 23 154 0.0 0.0 0.00 0.13 0.00 94 1014.6
20260904104502 23 154 0.0 0.0 0.00 0.13 0.00 95 1014.4
20260904103503 23 154 0.0 0.0 0.00 0.13 0.00 94 1014.5
20260904102502 23 154 0.0 0.0 0.00 0.13 0.00 94 1014.4
20260904101502 23 154 0.0 0.0 0.00 0.13 0.00 95 1014.3
20260904100501 23 154 0.0 0.0 0.00 0.13 0.00 95 1014.2
20260904095459 23 154 0.0 0.0 0.00 0.13 0.00 95 1014.0
20260904094458 23 154 0.0 0.0 0.00 0.13 0.00 95 1014.0
20260904093459 23 154 0.0 0.0 0.00 0.13 0.00 95 1014.0
20260904092458 23 154 0.0 0.0 0.00 0.13 0.00 94 1014.0
20260904091937 23 154 0.0 0.0 0.00 0.13 0.00 95 1014.0
20260904090457 23 154 0.0 0.0 0.00 0.13 0.00 94 1013.9
20260904085944 24 154 0.0 0.0 0.00 0.13 0.00 94 1013.9
20260904084949 24 154 0.0 0.0 0.00 0.13 0.00 94 1013.9
20260904083932 24 154 0.0 0.0 0.00 0.13 0.00 95 1013.8
20260904083422 24 154 0.0 0.0 0.00 0.13 0.00 94 1013.9
20260904081450 24 154 0.0 0.0 0.00 0.13 0.00 94 1013.9
20260904080452 24 154 0.0 0.0 0.00 0.13 0.00 94 1013.9
20260904075451 24 154 0.0 0.0 0.00 0.13 0.00 94 1013.9
20260904074451 24 154 0.0 0.0 0.00 0.13 0.00 94 1013.8
20260904073436 24 154 0.0 3.2 0.00 0.13 0.00 94 1013.8
20260904072437 24 154 0.0 0.0 0.00 0.13 0.00 94 1013.9
20260904071438 24 154 0.0 0.0 0.00 0.13 0.00 94 1013.8
20260904070438 24 154 0.0 0.0 0.00 0.13 0.00 94 1013.8
20260904065436 24 154 0.0 0.0 0.00 0.13 0.00 94 1013.8
20260904064912 24 154 0.0 0.0 0.00 0.13 0.00 94 1013.8
20260904063434 24 154 0.0 1.6 0.00 0.13 0.00 94 1013.8
20260904062435 25 154 1.6 4.8 0.00 0.13 0.00 94 1013.9
20260904061432 25 154 0.0 3.2 0.00 0.13 0.00 94 1014.1
20260904060915 25 154 0.0 0.0 0.00 0.13 0.00 94 1014.2
20260904055433 25 154 0.0 0.0 0.00 0.13 0.00 94 1014.3
20260904054432 25 154 0.0 1.6 0.00 0.13 0.00 94 1014.4
20260904053430 25 154 0.0 3.2 0.00 0.13 0.00 94 1014.5
20260904052906 25 154 0.0 4.8 0.00 0.13 0.00 94 1014.5
20260904051913 25 154 0.0 0.0 0.00 0.13 0.00 94 1014.5
20260904050432 25 154 0.0 0.0 0.00 0.13 0.00 94 1014.6
20260904045426 25 154 0.0 0.0 0.00 0.13 0.00 94 1014.6
20260904045353 25 154 0.0 0.0 0.00 0.13 0.00 94 1014.7
20260904043913 25 154 0.0 0.0 0.00 0.13 0.00 94 1014.8
20260904042426 25 154 0.0 0.0 0.00 0.13 0.00 94 1014.7
20260904041427 25 154 0.0 0.0 0.00 0.13 0.00 94 1014.7
20260904040427 25 154 0.0 0.0 0.00 0.13 0.00 94 1014.7
20260904035425 25 154 0.0 0.0 0.00 0.13 0.13 94 1014.6
20260904034419 25 154 0.0 0.0 0.03 0.13 0.13 94 1014.7
20260904033420 25 154 0.0 0.0 0.03 0.13 0.13 93 1014.8
20260904032419 25 154 0.0 0.0 0.03 0.13 0.13 93 1014.7
20260904031417 25 154 0.0 3.2 0.03 0.13 0.13 93 1014.6
20260904030904 25 154 1.6 6.4 0.03 0.13 0.13 93 1014.6
20260904025405 25 155 1.6 4.8 0.03 0.13 0.13 93 1014.6
20260904024405 25 146 1.6 6.4 0.00 0.10 0.10 93 1014.4
20260904023403 25 156 1.6 8.0 0.00 0.10 0.10 93 1014.5
20260904022403 25 149 3.2 6.4 0.00 0.10 0.10 93 1014.4
20260904021403 25 148 1.6 6.4 0.00 0.10 0.10 93 1014.4
20260904020403 25 152 1.6 4.8 0.00 0.10 0.10 93 1014.4
20260904015404 25 152 1.6 4.8 0.00 0.10 0.10 93 1014.6
20260904014845 25 152 0.0 4.8 0.00 0.10 0.10 93 1014.6
20260904013401 25 152 1.6 4.8 0.00 0.10 0.10 93 1014.7
20260904012400 25 152 1.6 4.8 0.00 0.10 0.10 93 1014.6
20260904011401 25 152 1.6 4.8 0.03 0.10 0.10 93 1014.5
20260904010400 25 152 0.0 3.2 0.05 0.10 0.10 93 1014.4
20260904005401 25 152 1.6 6.4 0.08 0.10 0.10 93 1014.3
20260904004356 25 152 1.6 4.8 0.08 0.10 0.10 92 1014.2
20260904003834 25 152 0.0 3.2 0.10 0.10 0.10 92 1014.2
20260904002357 25 152 0.0 1.6 0.10 0.10 0.10 92 1014.2
20260904001356 25 152 0.0 3.2 0.08 0.08 0.08 92 1014.2
20260904000358 25 152 1.6 6.4 0.05 0.05 0.05 92 1014.0
20260903235840 25 154 1.6 6.4 0.03 0.03 0.03 91 1014.0
20260903234356 25 163 3.2 6.4 0.03 0.03 0.03 90 1014.0
20260903233355 25 142 3.2 12.9 0.00 0.00 0.00 89 1014.1
20260903232353 25 156 1.6 6.4 0.00 0.00 0.00 88 1014.3
20260903231355 25 157 1.6 9.7 0.00 0.00 0.00 86 1014.2
20260903230353 26 136 6.4 14.5 0.00 0.00 0.00 86 1014.1
20260903225839 26 149 4.8 12.9 0.00 0.00 0.00 86 1013.9
20260903224355 26 152 3.2 14.5 0.00 0.00 0.00 86 1013.9
20260903223823 26 158 6.4 16.1 0.00 0.00 0.00 84 1013.9
20260903222348 26 158 6.4 16.1 0.00 0.00 0.00 82 1013.8
20260903221347 27 173 6.4 14.5 0.00 0.00 0.00 82 1013.6
20260903220831 27 140 9.7 20.9 0.00 0.00 0.00 80 1013.5
20260903215348 28 150 6.4 20.9 0.00 0.00 0.00 80 1013.5
20260903214825 29 129 8.0 17.7 0.00 0.00 0.00 80 1013.1
20260903213343 29 100 8.0 19.3 0.00 0.00 0.00 80 1013.0
20260903212344 30 133 6.4 19.3 0.00 0.00 0.00 78 1013.0
20260903211815 30 88 6.4 19.3 0.00 0.00 0.00 75 1012.5
20260903210334 30 116 8.0 19.3 0.00 0.00 0.00 72 1013.0
20260903205334 31 104 9.7 19.3 0.00 0.00 0.00 71 1012.7
20260903204333 31 112 8.0 20.9 0.00 0.00 0.00 71 1012.5
20260903203335 31 123 8.0 20.9 0.00 0.00 0.00 73 1012.3
20260903202807 31 79 11.3 22.5 0.00 0.00 0.00 75 1012.4
20260903201326 31 98 11.3 24.1 0.00 0.00 0.00 74 1012.3
20260903200324 32 114 11.3 25.7 0.00 0.00 0.00 71 1012.5